Regional Weather Roundup
Issued by NWS

Home | Current Version | Previous Version | Graphics & Text | Print | Product List | Glossary On
Versions: 1 2 3 4 5 6 7 8 9 10 11 12 13 14 15 16 17 18 19 20 21 22 23 24 25 26 27 28 29 30 31 32 33 34 35 36 37 38 39 40 41 42 43 44 45 46 47 48 49 50
325
ASUS45 KBOI 241210
RWRID

IDAHO REGIONAL WEATHER ROUNDUP
NATIONAL WEATHER SERVICE BOISE ID
600 AM MDT TUE MAY 24 2016

NOTE: "FAIR" INDICATES FEW OR NO CLOUDS BELOW 12000 FEET
WITH NO SIGNIFICANT WEATHER AND/OR OBSTRUCTIONS TO VISIBILITY

IDZ012-014-241300-
SOUTHWEST IDAHO


CITY           SKY/WX    TMP DP  RH WIND       PRES   REMARKS
BOISE          PTCLDY    45  37  73 SW3       29.84S
CALDWELL       PTCLDY    46  41  82 W7        29.85R
MOUNTAIN HOME  MOCLDY    52  42  68 W10       29.82S
$$

IDZ016-017-241300-
SOUTHCENTRAL IDAHO


CITY           SKY/WX    TMP DP  RH WIND       PRES   REMARKS
BURLEY         CLEAR     40  38  93 SW3       29.83F
JEROME         CLEAR     42  39  89 E8        29.84S
TWIN FALLS     MOCLDY    44  38  79 S10       29.84S
$$

IDZ019>023-241300-
SOUTHEAST IDAHO


CITY           SKY/WX    TMP DP  RH WIND       PRES   REMARKS
IDAHO FALLS    CLEAR     36  32  85 N3        29.87S
POCATELLO      PTCLDY    35  33  92 CALM      29.86F
REXBURG        CLEAR     34  31  88 N5        29.88R WCI  30
$$

IDZ006-010-011-018-031-032-241300-
CENTRAL IDAHO MOUNTAINS


CITY           SKY/WX    TMP DP  RH WIND       PRES   REMARKS
MCCALL         PTCLDY    35  32  88 CALM      29.88S
HAILEY         CLEAR     36  32  87 NW10      29.90F WCI  28
STANLEY          N/A     25  21  85 CALM      29.94S
SALMON         CLOUDY    41  34  75 CALM      29.90R
CHALLIS        CLEAR     34  29  82 CALM      29.90S
$$

IDZ002-004-006-007-026-241300-
NORTHERN IDAHO


CITY           SKY/WX    TMP DP  RH WIND       PRES   REMARKS
LEWISTON       CLOUDY    52  45  77 SE6       29.88R
LOWELL           N/A     47  45  93 CALM      29.93S
COEUR D`ALENE  CLOUDY    48  46  93 NE3       29.87R
MULLAN PASS    LGT RAIN  35  35 100 VRB5      29.89S VSB 1/4 WCI  31
$$




USA.gov is the U.S. government's official web portal to all federal, state and local government web resources and services.